GW3945 Weather Reports


Display with metric or nautical units.
time (UTC)temp
F
wind
direction
speed
MPH
gust
MPH
rain 1hr
in
rain 24hr
in
rain mn
in
humidity
%
barometer
mb
20260504034641 57 160 0.0 0.0 0.00 0.00 0.00 54 1013.0
20260504034138 57 168 0.0 0.0 0.00 0.00 0.00 54 1013.0
20260504033636 57 165 0.0 0.0 0.00 0.00 0.00 54 1013.2
20260504033133 58 171 0.0 0.0 0.00 0.00 0.00 53 1013.4
20260504032629 58 171 0.0 0.0 0.00 0.00 0.00 52 1013.4
20260504032127 57 163 0.0 0.0 0.00 0.00 0.00 54 1013.2
20260504031624 57 174 0.0 0.0 0.00 0.00 0.00 54 1013.3
20260504031120 57 174 1.0 2.0 0.00 0.00 0.00 54 1013.3
20260504030617 57 174 0.0 0.0 0.00 0.00 0.00 53 1013.7
20260504030114 57 171 0.0 0.0 0.00 0.00 0.00 54 1013.7
20260504025610 57 170 0.0 0.0 0.00 0.00 0.00 54 1013.6
20260504025107 57 171 0.0 0.0 0.00 0.00 0.00 54 1014.0
20260504024604 57 177 0.0 0.0 0.00 0.00 0.00 55 1014.0
20260504024101 57 169 0.0 0.0 0.00 0.00 0.00 54 1013.8
20260504023557 56 172 0.0 0.0 0.00 0.00 0.00 58 1013.8
20260504023054 56 174 0.0 0.0 0.00 0.00 0.00 62 1013.9
20260504022550 57 177 0.0 0.0 0.00 0.00 0.00 60 1013.9
20260504022046 57 177 0.0 0.0 0.00 0.00 0.00 56 1014.0
20260504021544 57 177 0.0 0.0 0.00 0.00 0.00 62 1013.8
20260504021040 58 177 0.0 0.0 0.00 0.00 0.00 58 1013.9
20260504020537 58 177 0.0 0.0 0.00 0.00 0.00 59 1013.9
20260504020034 58 177 0.0 0.0 0.00 0.00 0.00 60 1013.7
20260504015530 59 177 0.0 0.0 0.00 0.00 0.00 53 1013.5
20260504015026 59 178 0.0 0.0 0.00 0.00 0.00 50 1013.7
20260504014523 59 176 0.0 0.0 0.00 0.00 0.00 50 1013.6
20260504014020 59 176 0.0 0.0 0.00 0.00 0.00 50 1013.6
20260504013518 60 177 0.0 0.0 0.00 0.00 0.00 48 1013.6
20260504013014 60 197 0.0 0.0 0.00 0.00 0.00 48 1013.7
20260504012512 60 173 0.0 0.0 0.00 0.00 0.00 48 1013.4
20260504012010 60 195 0.0 0.0 0.00 0.00 0.00 47 1013.5
20260504011506 60 174 0.0 0.0 0.00 0.00 0.00 49 1013.2
20260504011002 60 171 0.0 0.0 0.00 0.00 0.00 50 1013.2
20260504010458 60 171 0.0 0.0 0.00 0.00 0.00 49 1013.3
20260504005954 60 188 0.0 0.0 0.00 0.00 0.00 47 1013.3
20260504005451 60 175 0.0 0.0 0.00 0.00 0.00 48 1013.0
20260504004948 61 173 0.0 0.0 0.00 0.00 0.00 48 1013.2
20260504004446 61 173 0.0 0.0 0.00 0.00 0.00 47 1013.3
20260504003943 61 172 0.0 0.0 0.00 0.00 0.00 48 1013.2
20260504003439 61 172 0.0 0.0 0.00 0.00 0.00 48 1013.0
20260504002936 61 172 0.0 0.0 0.00 0.00 0.00 47 1013.3
20260504002433 62 170 0.0 0.0 0.00 0.00 0.00 46 1013.3
20260504001930 62 173 0.0 0.0 0.00 0.00 0.00 46 1013.5
20260504001427 62 170 0.0 0.0 0.00 0.00 0.00 45 1013.5
20260504000924 62 172 0.0 0.0 0.00 0.00 0.00 46 1013.4
20260504000423 62 174 0.0 0.0 0.00 0.00 0.00 44 1013.7
20260503235918 63 172 0.0 0.0 0.00 0.00 0.00 44 1013.5
20260503235416 63 173 0.0 0.0 0.00 0.00 0.00 44 1013.5
20260503234914 63 172 0.0 0.0 0.00 0.00 0.00 43 1013.7
20260503234411 63 176 0.0 0.0 0.00 0.00 0.00 43 1013.6
20260503233909 63 174 0.0 0.0 0.00 0.00 0.00 42 1013.8
20260503233405 63 172 0.0 0.0 0.00 0.00 0.00 43 1013.7
20260503232901 64 166 0.0 0.0 0.00 0.00 0.00 43 1013.5
20260503232359 63 159 0.0 0.0 0.00 0.00 0.00 44 1013.9
20260503231856 64 172 0.0 0.0 0.00 0.00 0.00 43 1013.9
20260503231353 64 176 0.0 0.0 0.00 0.00 0.00 43 1014.1
20260503230849 64 167 0.0 0.0 0.00 0.00 0.00 42 1014.2
20260503230346 64 177 0.0 0.0 0.00 0.00 0.00 45 1014.2
20260503225844 65 151 0.0 0.0 0.00 0.00 0.00 41 1014.3
20260503225340 66 170 0.0 0.0 0.00 0.00 0.00 41 1014.4
20260503224836 65 225 1.0 2.0 0.00 0.00 0.00 39 1014.4
20260503224333 66 168 0.0 0.0 0.00 0.00 0.00 39 1014.3
20260503223831 66 207 0.0 0.0 0.00 0.00 0.00 38 1014.3
20260503223329 66 214 0.0 1.0 0.00 0.00 0.00 37 1014.5
20260503222824 65 171 0.0 0.0 0.00 0.00 0.00 40 1014.5
20260503222323 65 157 3.0 3.0 0.00 0.00 0.00 38 1014.6
20260503221820 65 159 0.0 0.0 0.00 0.00 0.00 41 1014.6
20260503221319 66 177 0.0 0.0 0.00 0.00 0.00 40 1014.6
20260503220815 66 174 0.0 0.0 0.00 0.00 0.00 40 1014.8
20260503220312 66 164 0.0 0.0 0.00 0.00 0.00 40 1014.5
20260503215808 65 164 0.0 0.0 0.00 0.00 0.00 40 1014.7
20260503215306 67 197 0.0 0.0 0.00 0.00 0.00 40 1014.8
20260503214804 67 180 0.0 0.0 0.00 0.00 0.00 36 1015.0
20260503214300 67 212 1.0 2.0 0.00 0.00 0.00 36 1014.9
20260503213758 68 180 0.0 0.0 0.00 0.00 0.00 34 1015.0
20260503213255 67 180 0.0 0.0 0.00 0.00 0.00 38 1015.1
20260503212752 67 131 0.0 0.0 0.00 0.00 0.00 37 1015.3
20260503212250 66 186 0.0 0.0 0.00 0.00 0.00 42 1015.5
20260503211747 66 178 0.0 0.0 0.00 0.00 0.00 40 1015.3
20260503211243 67 152 0.0 0.0 0.00 0.00 0.00 39 1015.7
20260503210738 66 212 0.0 0.0 0.00 0.00 0.00 40 1015.5
20260503210236 66 166 0.0 0.0 0.00 0.00 0.00 39 1015.6
20260503205731 66 216 0.0 0.0 0.00 0.00 0.00 39 1015.7
20260503205228 66 160 0.0 0.0 0.00 0.00 0.00 38 1015.8
20260503204724 67 184 0.0 0.0 0.00 0.00 0.00 38 1016.1
20260503204222 66 178 0.0 0.0 0.00 0.00 0.00 36 1016.1
20260503203719 67 174 0.0 0.0 0.00 0.00 0.00 40 1016.2
20260503203217 67 221 1.0 2.0 0.00 0.00 0.00 36 1016.1
20260503202714 67 218 2.0 5.0 0.00 0.00 0.00 35 1016.2
20260503202212 66 254 1.0 2.0 0.00 0.00 0.00 36 1016.2
20260503201709 66 207 0.0 0.0 0.00 0.00 0.00 42 1016.4
20260503201207 65 182 0.0 0.0 0.00 0.00 0.00 40 1016.5
20260503200703 64 174 0.0 1.0 0.00 0.00 0.00 39 1016.6
20260503200159 64 169 1.0 1.0 0.00 0.00 0.00 38 1016.6
20260503195656 65 171 1.0 1.0 0.00 0.00 0.00 39 1017.1
20260503195153 65 166 0.0 0.0 0.00 0.00 0.00 41 1017.0
20260503194650 65 183 0.0 0.0 0.00 0.00 0.00 37 1017.1
20260503194145 64 164 0.0 0.0 0.00 0.00 0.00 37 1017.2
20260503193643 65 168 0.0 0.0 0.00 0.00 0.00 39 1017.5
20260503193138 65 239 2.0 5.0 0.00 0.00 0.00 37 1017.4
20260503192634 65 158 0.0 0.0 0.00 0.00 0.00 40 1017.7
20260503192130 63 178 0.0 0.0 0.00 0.00 0.00 40 1017.4
20260503191627 64 173 0.0 0.0 0.00 0.00 0.00 39 1017.5
20260503191124 64 161 0.0 0.0 0.00 0.00 0.00 42 1017.5
20260503190621 62 233 0.0 0.0 0.00 0.00 0.00 41 1017.8
20260503190118 62 183 0.0 0.0 0.00 0.00 0.00 40 1017.9
20260503185614 63 141 0.0 0.0 0.00 0.00 0.00 42 1017.9
20260503185114 63 238 1.0 5.0 0.00 0.00 0.00 38 1018.1
20260503184610 63 179 0.0 0.0 0.00 0.00 0.00 39 1018.2
20260503184106 63 168 0.0 1.0 0.00 0.00 0.00 39 1018.0
20260503183603 62 256 1.0 2.0 0.00 0.00 0.00 39 1018.2
20260503183101 62 171 0.0 0.0 0.00 0.00 0.00 42 1018.1
20260503182559 61 168 0.0 0.0 0.00 0.00 0.00 41 1018.0
20260503182056 61 166 0.0 0.0 0.00 0.00 0.00 39 1018.2
20260503181553 62 177 1.0 2.0 0.00 0.00 0.00 40 1018.6
20260503181050 62 172 0.0 0.0 0.00 0.00 0.00 40 1018.4
20260503180547 60 164 0.0 0.0 0.00 0.00 0.00 41 1018.5
20260503180044 61 176 0.0 0.0 0.00 0.00 0.00 40 1018.7
20260503175541 61 177 1.0 2.0 0.00 0.00 0.00 42 1018.6
20260503175039 60 145 0.0 0.0 0.00 0.00 0.00 43 1018.6
20260503174536 61 158 0.0 0.0 0.00 0.00 0.00 41 1018.8
20260503174032 60 170 0.0 0.0 0.00 0.00 0.00 43 1018.8
20260503173527 60 147 0.0 0.0 0.00 0.00 0.00 41 1018.9
20260503173024 60 204 1.0 1.0 0.00 0.00 0.00 45 1018.8
20260503172521 59 215 0.0 0.0 0.00 0.00 0.00 42 1018.8
20260503172018 59 156 0.0 0.0 0.00 0.00 0.00 43 1019.0
20260503171515 59 163 0.0 0.0 0.00 0.00 0.00 46 1019.2
20260503171012 59 178 0.0 0.0 0.00 0.00 0.00 44 1019.3
20260503170508 60 188 2.0 3.0 0.00 0.00 0.00 42 1019.1
20260503150901 56 125 0.0 0.0 0.00 0.00 0.00 49 1020.3
20260503150357 56 165 0.0 0.0 0.00 0.00 0.00 54 1020.1
20260503131250 47 171 0.0 0.0 0.00 0.00 0.00 83 1020.1
20260503130748 45 175 0.0 0.0 0.00 0.00 0.00 87 1020.1
20260503130245 44 176 0.0 0.0 0.00 0.00 0.00 93 1020.0
20260503120211 41 183 0.0 0.0 0.00 0.00 0.00 96 1019.7
20260503110633 40 181 0.0 0.0 0.00 0.00 0.00 96 1018.8
20260503110130 40 181 0.0 0.0 0.00 0.00 0.00 96 1018.7
20260503081446 42 188 0.0 0.0 0.00 0.00 0.00 96 1018.4
20260503080943 42 185 0.0 0.0 0.00 0.00 0.00 96 1018.4
20260503080439 42 193 0.0 0.0 0.00 0.00 0.00 96 1018.4
20260503072916 43 185 0.0 0.0 0.00 0.00 0.00 96 1018.1
20260503072413 43 185 0.0 0.0 0.00 0.00 0.00 96 1018.0
20260503071910 43 185 0.0 0.0 0.00 0.00 0.00 96 1018.3
20260503071407 42 185 0.0 0.0 0.00 0.00 0.00 96 1018.4
20260503070903 43 185 0.0 0.0 0.00 0.00 0.00 96 1018.4
20260503070401 43 184 0.0 0.0 0.00 0.00 0.00 96 1018.4
20260503060326 43 182 0.0 0.0 0.00 0.00 0.00 96 1018.0
20260503054814 43 182 0.0 0.0 0.00 0.00 0.00 95 1018.2
20260503054310 43 182 0.0 0.0 0.00 0.00 0.00 95 1018.1
20260503053808 43 182 0.0 0.0 0.00 0.00 0.00 95 1018.1
20260503053306 43 182 0.0 0.0 0.00 0.00 0.00 95 1018.2
20260503052802 43 183 0.0 0.0 0.00 0.00 0.00 95 1018.2
20260503052259 43 182 0.0 0.0 0.00 0.00 0.00 95 1018.1
20260503051755 44 182 0.0 0.0 0.00 0.00 0.00 95 1018.2
20260503051252 44 182 0.0 0.0 0.00 0.00 0.00 95 1018.3
20260503050748 44 183 0.0 0.0 0.00 0.00 0.00 95 1018.2
20260503050245 44 176 0.0 0.0 0.00 0.00 0.00 95 1018.1
20260503045742 44 176 0.0 0.0 0.00 0.00 0.00 95 1018.1
20260503045240 44 179 0.0 0.0 0.00 0.00 0.00 95 1018.1
20260503044736 44 179 0.0 0.0 0.00 0.00 0.00 94 1018.0
20260503044233 44 179 0.0 0.0 0.00 0.00 0.00 94 1017.9
20260503043731 44 180 0.0 0.0 0.00 0.00 0.00 94 1017.9
20260503043228 44 180 0.0 0.0 0.00 0.00 0.00 94 1017.9
20260503042723 44 180 0.0 0.0 0.00 0.00 0.00 94 1017.8
20260503042220 44 180 0.0 0.0 0.00 0.00 0.00 94 1018.0
20260503041716 44 180 0.0 0.0 0.00 0.00 0.00 94 1017.7
20260503041214 44 179 0.0 0.0 0.00 0.00 0.00 94 1017.8
20260503040711 44 180 0.0 0.0 0.00 0.00 0.00 94 1017.9
20260503040209 44 180 0.0 0.0 0.00 0.00 0.00 94 1017.7
20260503035705 44 179 0.0 0.0 0.00 0.00 0.00 94 1017.7
20260503035203 44 180 0.0 0.0 0.00 0.00 0.00 94 1018.0